www.pogodaiklimat.ru

Погода и климат >> Архив погоды >> Норвегия >> Филефель


ПОГОДА в Филефеле

  • Прогноз погоды в Филефеле
  • Монитор погоды в Филефеле

АРХИВ ПОГОДЫ в Филефеле

Время (UTC), дата Ветер
(напр.,м/с)
 
Видим.   Явления Облачность Т
(С)
Тd
(С)
f
(%)
Тe
(С)
Тes
(С)
Комфортность P
(гПа)
Po
(гПа)
Тmin
(С)
Tmax
(С)
R
(мм)
R24
(мм)
S
(см)
13 18.06 н/о
14 18.06 ЮЗ 6
{10}
н/о н/о +12.9 -1.8 36 +11 +11 1008.5 901.2
15 18.06 ЮЗ 6
{10}
н/о н/о +13.1 -1.2 37 +11 +11 1007.9 900.8
16 18.06 З 5
{10}
н/о н/о +11.6 +1.3 49 +9 +9 1008.5 900.7
17 18.06 З 4
{12}
н/о н/о +9.7 +1.9 58 +7 +7 1009.2 900.6
18 18.06 З 4
{12}
н/о н/о +11.5 +0.6 47 +10 +10 1008.4 900.6 +8.7 +13.4
19 18.06 ЮЗ 4
{10}
н/о н/о +10.2 +0.3 50 +8 +8 1009.1 900.8
20 18.06 З 3
{8}
н/о н/о +8.3 +0.3 57 +6 +6 1010.1 901.0
21 18.06 З 2
{5}
н/о н/о +6.6 +1.5 70 +5 +5 1010.9 901.1
22 18.06 З 3
{5}
н/о н/о +6.9 +2.4 73 +4 +4 1011.0 901.3
23 18.06 СЗ 2
{5}
н/о н/о +5.5 +2.9 83 +3 +3 1011.7 901.3
00 19.06 ЮВ 1
{10}
н/о н/о +5.4 +2.8 83 +4 +4 1011.8 901.4
01 19.06 ЮВ 1
{2}
н/о н/о +5.2 +2.7 84 +4 +4 1011.7 901.3
02 19.06 СВ 1
{2}
н/о н/о +3.2 +2.0 92 +2 +2 1012.8 901.5
03 19.06 СВ 1
{2}
н/о н/о +4.5 +2.7 88 +3 +3 1012.3 901.5
04 19.06 штиль 0
{2}
н/о н/о +5.0 +3.2 88 +4 +4 1012.2 901.6
05 19.06 З 2
{3}
н/о н/о +6.7 +2.6 75 +5 +5 1011.5 901.6
06 19.06 З 2
{3}
н/о н/о +7.6 +1.3 64 +6 +6 1011.3 901.8 +2.4 +11.8
07 19.06 СЗ 3
{5}
н/о н/о +8.9 +1.6 60 +7 +7 1010.8 901.8
08 19.06 З 2
{5}
н/о н/о +10.3 +0.9 52 +9 +9 1010.3 901.8
09 19.06 З 3
{6}
н/о н/о +10.7 +0.2 48 +9 +9 1010.2 901.9
10 19.06 З 2
{6}
н/о н/о +11.6 -0.5 43 +11 +11 1009.7 901.8
11 19.06 З 4
{7}
н/о н/о +11.9 -0.2 43 +10 +10 1009.5 901.7
12 19.06 ЮЗ 3
{7}
н/о н/о +13.4 -0.2 39 +13 +13 1008.6 901.4
13 19.06 С 1
{7}
н/о н/о +13.3 -1.0 37 +14 +14 1008.4 901.2
14 19.06 ЮВ 2
{5}
н/о н/о +14.4 -1.2 34 +14 +14 1007.5 900.8
15 19.06 З 1
{5}
н/о н/о +14.9 -2.5 30 +16 +16 1006.5 900.1
16 19.06 В 4
{7}
н/о н/о +13.8 +0.8 41 +13 +13 1006.5 899.7
17 19.06 ЮВ 5
{7}
н/о н/о +12.4 +2.0 49 +10 +10 1007.2 899.9
18 19.06 В 2
{7}
н/о н/о +10.3 +5.1 70 +9 +9 1007.7 899.5 +7.6 +15.4 0.1
19 19.06 В 4
{7}
н/о н/о +9.4 +6.7 83 +7 +7 1008.0 899.5 0.1
20 19.06 В 4
{7}
н/о н/о +9.1 +5.8 80 +6 +6 1008.1 899.4
21 19.06 В 4
{8}
н/о н/о +8.4 +5.7 83 +5 +5 1008.1 899.2
22 19.06 В 4
{8}
н/о н/о +8.4 +5.3 81 +5 +5 1007.3 898.5
23 19.06 В 5
{8}
н/о н/о +8.4 +5.3 81 +5 +5 1006.6 897.9
00 20.06 В 5
{8}
н/о н/о +7.8 +5.8 87 +4 +4 1006.2 897.3 0.5
01 20.06 В 6
{9}
н/о н/о +7.3 +5.5 88 +3 +3 1005.9 896.9 0.8
02 20.06 В 5
{8}
н/о н/о +7.1 +5.4 89 +3 +3 1005.3 896.3 1
03 20.06 В 3
{7}
н/о н/о +6.9 +5.5 91 +4 +4 1005.2 896.1 0.9
04 20.06 В 3
{6}
н/о н/о +6.9 +5.5 91 +4 +4 1005.0 895.9 0.1
05 20.06 ЮВ 2
{5}
н/о н/о +7.0 +5.6 91 +5 +5 1004.7 895.7
06 20.06 В 2
{9}
н/о н/о +7.6 +5.9 89 +5 +5 1004.5 895.7 +6.9 +10.3
07 20.06 В 2
{3}
н/о н/о +8.8 +6.1 83 +7 +7 1003.8 895.5
08 20.06 В 2
{3}
н/о н/о +9.5 +6.8 83 +8 +8 1003.6 895.6
09 20.06 В 1
{4}
н/о н/о +11.9 +7.2 73 +12 +12 1002.2 895.2
10 20.06 В 3
{5}
н/о н/о +11.0 +6.8 75 +9 +9 1002.8 895.5
11 20.06 В 3
{5}
н/о н/о +10.7 +7.9 83 +9 +9 1003.0 895.5 0.1
12 20.06 В 1
{5}
н/о н/о +10.5 +7.9 84 +10 +10 1003.2 895.6 1
13 20.06 ЮВ 2
{5}
н/о н/о +12.4 +8.9 79 +12 +12 1002.1 895.3
14 20.06 В 4
{5}
н/о н/о +12.8 +8.7 76 +11 +11 1001.7 895.1
15 20.06 В 3
{6}
н/о н/о +12.1 +7.6 74 +11 +11 1001.7 894.9
16 20.06 СЗ 2
{6}
н/о н/о +13.6 +6.9 64 +13 +13 1001.0 894.7 0.1
17 20.06 З 4
{6}
н/о н/о +13.3 +6.4 63 +12 +12 1000.9 894.6
18 20.06 З 4
{6}
н/о н/о +11.8 +6.5 70 +10 +10 1001.9 894.9 +7.6 +14.3 0.1
19 20.06 З 5
{7}
н/о н/о +10.8 +6.0 72 +8 +8 1002.9 895.4
20 20.06 З 7
{11}
н/о н/о +8.6 +4.6 76 +4 +4 1004.3 895.9 0.2
21 20.06 З 3
{8}
н/о н/о +8.1 +4.7 79 +5 +5 1005.1 896.5 0.2
22 20.06 СЗ 2
{4}
н/о н/о +7.2 +4.7 84 +5 +5 1005.6 896.6
23 20.06 ЮЗ 3
{6}
н/о н/о +7.1 +4.1 81 +4 +4 1005.9 896.8 0.1
00 21.06 З 3
{11}
н/о н/о +5.9 +3.1 82 +3 +3 1006.4 896.8
01 21.06 З 2
{5}
н/о н/о +5.0 +2.2 82 +2 +2 1006.7 896.7
02 21.06 штиль 0
{5}
н/о н/о +4.9 +2.3 83 +4 +4 1006.9 896.9
03 21.06 СЗ 1
{6}
н/о н/о +5.6 +2.6 81 +4 +4 1007.0 897.2 0.4
04 21.06 З 5
{8}
н/о н/о +6.3 +0.4 66 +2 +2 1006.5 897.0
05 21.06 З 4
{9}
н/о н/о +6.5 +0.6 66 +3 +3 1006.8 897.4
06 21.06 З 7
{9}
н/о н/о +7.3 +0.1 60 +3 +3 1006.9 897.7 +4.5 +11.9 0.9
07 21.06 З 6
{10}
н/о н/о +7.8 -1.1 53 +4 +4 1007.0 898.1
08 21.06 З 5
{9}
н/о н/о +7.9 -1.3 52 +5 +5 1007.2 898.3
09 21.06 З 4
{7}
н/о н/о +9.0 -1.1 49 +7 +7 1007.0 898.5
10 21.06 З 5
{9}
н/о н/о +8.4 +0.6 58 +5 +5 1007.6 898.8
11 21.06 З 3
{9}
н/о н/о +8.3 +1.5 62 +6 +6 1007.8 898.9
12 21.06 З 4
{10}
н/о н/о +9.9 -0.8 47 +8 +8 1007.2 899.0
13 21.06 З 3
{7}
н/о н/о +9.8 +0.4 52 +8 +8 1007.3 899.0
14 21.06 З 5
{9}
н/о н/о +10.6 -0.5 46 +8 +8 1007.0 899.0
15 21.06 З 4
{12}
н/о н/о +10.1 +0.2 50 +8 +8 1007.6 899.4
16 21.06 ЮЗ 5
{10}
н/о н/о +7.0 +1.5 68 +3 +3 1009.5 899.9
17 21.06 СЗ 4
{7}
н/о н/о +6.6 +1.7 71 +3 +3 1009.5 899.9
18 21.06 З 5
{12}
н/о н/о +6.0 +1.5 73 +2 +2 1009.9 900.0 +5.7 +11.0 0.2
19 21.06 З 5
{9}
н/о н/о +5.9 +1.1 71 +2 +2 1010.5 900.5
20 21.06 ЮЗ 6
{9}
н/о н/о +4.8 +1.5 79 -0 -0 1011.5 901.0
21 21.06 З 4
{9}
н/о н/о +4.3 +1.3 81 0 0 1012.2 901.4 0.3
22 21.06 З 6
{9}
н/о н/о +4.1 +0.8 79 -1 -1 1012.9 901.9 0.1
23 21.06 З 4
{10}
н/о н/о +4.2 +0.5 77 0 0 1013.4 902.4
00 22.06 З 5
{10}
н/о н/о +4.0 +0.4 77 -1 -1 1013.7 902.6
01 22.06 З 6
{9}
н/о н/о +4.2 +0.2 75 -1 -1 1013.9 902.9
02 22.06 З 6
{9}
н/о н/о +4.2 +0.2 75 -1 -1 1014.5 903.4
03 22.06 З 6
{9}
н/о н/о +3.6 +0.5 80 -2 -2 1015.1 903.7
04 22.06 ЮЗ 5
{8}
н/о н/о +3.8 +0.7 80 -1 -1 1015.5 904.1
05 22.06 З 4
{8}
н/о н/о +4.8 +0.9 76 +1 +1 1015.6 904.6
06 22.06 З 7
{11}
н/о н/о +4.7 +0.3 73 -1 -1 1016.4 905.3 +3.6 +6.7 0.4
07 22.06 З 5
{10}
н/о н/о +5.2 +0.6 72 +1 +1 1016.8 905.8
08 22.06 З 7
{11}
н/о н/о +6.2 -0.3 63 +2 +2 1017.2 906.5
09 22.06 З 5
{10}
н/о н/о +5.7 +1.3 73 +1 +1 1018.0 907.1 0.1
10 22.06 З 7
{11}
н/о н/о +6.5 +0.6 66 +2 +2 1018.2 907.6
11 22.06 З 8
{13}
н/о н/о +7.5 +0.5 61 +3 +3 1018.4 908.1 0.1
12 22.06 З 7
{13}
н/о н/о +8.3 +1.5 62 +4 +4 1018.5 908.5
13 22.06 З 8
{12}
н/о н/о +6.8 +1.7 70 +2 +2 1019.7 909.0 0.3
14 22.06 ЮЗ 5
{11}
н/о н/о +5.9 +1.5 73 +2 +2 1020.9 909.7 0.1
15 22.06 З 7
{11}
н/о н/о +6.9 -0.1 61 +2 +2 1020.4 909.7 0.1
16 22.06 СЗ 7
{10}
н/о н/о +7.0 +0.5 63 +3 +3 1020.3 909.6
17 22.06 З 5
{11}
н/о н/о +5.9 +1.6 74 +2 +2 1021.2 910.0 0.1
18 22.06 З 5
{12}
н/о н/о +7.6 +0.6 61 +4 +4 1020.8 910.2 +4.7 +8.6 0.9
19 22.06 З 5
{9}
н/о н/о +5.6 +0.4 69 +1 +1 1021.6 910.2
20 22.06 З 5
{9}
н/о н/о +4.9 +0.5 73 0 0 1022.2 910.5
21 22.06 З 4
{8}
н/о н/о +4.7 -0.3 70 +1 +1 1022.5 910.7
22 22.06 З 4
{6}
н/о н/о +1.6 -1.1 82 -3 -3 1023.8 910.7
23 22.06 З 2
{5}
н/о н/о +2.2 0.0 85 -1 -1 1023.8 910.9
00 23.06 З 3
{9}
н/о н/о +3.2 -0.2 78 -1 -1 1023.1 910.7
01 23.06 З 4
{6}
н/о н/о +3.1 -0.7 76 -1 -1 1023.2 910.7
02 23.06 З 2
{4}
н/о н/о +4.8 -0.8 67 +2 +2 1022.7 910.9
03 23.06 З 4
{5}
н/о н/о +5.3 +0.1 69 +2 +2 1022.5 910.9
04 23.06 З 5
{9}
н/о н/о +5.2 +1.0 74 +1 +1 1023.0 911.3
05 23.06 З 5
{8}
н/о н/о +5.5 +1.8 77 +1 +1 1023.2 911.6
06 23.06 З 4
{9}
н/о н/о +5.9 +1.3 72 +2 +2 1023.6 912.1 +1.3 +7.7
07 23.06 СЗ 5
{7}
н/о н/о +5.4 +1.0 73 +1 +1 1024.0 912.3
08 23.06 З 4
{5}
н/о н/о +6.8 +1.1 67 +3 +3 1023.7 912.5
09 23.06 З 3
{6}
н/о н/о +6.6 +1.3 69 +4 +4 1024.2 912.9
10 23.06 З 3
{5}
н/о н/о +7.3 +1.2 65 +5 +5 1024.1 913.1
11 23.06 З 5
{8}
н/о н/о +6.9 +1.8 70 +3 +3 1024.8 913.6
12 23.06 З 5
{8}
н/о н/о +7.0 +1.1 66 +3 +3 1025.3 914.1
13 23.06 ЮЗ 5
{9}
н/о н/о +6.4 +2.3 75 +2 +2 1026.3 914.7
14 23.06 З 6
{9}
н/о н/о +8.5 +1.4 61 +5 +5 1025.5 914.8
15 23.06 З 6
{10}
н/о н/о +8.5 +1.0 59 +5 +5 1025.9 915.1
16 23.06 З 6
{10}
н/о н/о +9.1 -1.0 49 +6 +6 1025.6 915.2
17 23.06 З 6
{9}
н/о н/о +10.1 -0.7 47 +7 +7 1025.1 915.0
18 23.06 З 5
{10}
н/о н/о +8.8 +0.3 55 +6 +6 1025.7 915.1 +5.4 +10.1
19 23.06 З 3
{7}
н/о н/о +9.0 +0.7 56 +7 +7 1026.2 915.6
20 23.06 СЗ 2
{5}
н/о н/о +4.8 +0.9 76 +2 +2 1028.4 916.0
21 23.06 С 1
{3}
н/о н/о +2.2 +0.1 86 +1 +1 1030.3 916.7
22 23.06 С 2
{4}
н/о н/о +1.5 -0.6 86 -2 -2 1031.1 917.2
23 23.06 С 1
{3}
н/о н/о +0.2 -1.1 91 -2 -2 1032.2 917.6
00 24.06 В 1
{7}
н/о н/о -0.9 -2.0 92 -3 -3 1033.1 917.9
01 24.06 СВ 1
{2}
н/о н/о -1.8 -2.8 93 -4 -4 1033.4 917.9
02 24.06 В 1
{2}
н/о н/о -2.7 -3.7 93 -5 -5 1034.0 918.1
03 24.06
{2}
н/о н/о -2.4 -3.4 93 1033.9 918.1
04 24.06 С 1
{2}
н/о н/о -1.5 -2.5 93 -4 -4 1033.4 918.0
05 24.06
{1}
н/о н/о +1.9 +0.4 90 1032.2 918.2
06 24.06 С 1
{2}
н/о н/о +7.3 +1.6 67 +7 +7 1030.1 918.4 -3.0 +9.5
07 24.06 В 2
{6}
н/о н/о +10.6 +1.2 52 +10 +10 1028.6 918.2
08 24.06 В 4
{6}
н/о н/о +10.9 +0.1 47 +9 +9 1028.4 918.2
09 24.06 В 2
{6}
н/о н/о +12.7 +0.2 42 +12 +12 1027.4 918.0
10 24.06 ЮЗ 4
{6}
н/о н/о +14.1 0.0 38 +13 +13 1026.8 918.0
11 24.06 ЮЗ 3
{6}
н/о н/о +14.5 -0.3 36 +14 +14 1026.3 917.7
12 24.06 ЮЗ 4
{7}
н/о н/о +15.0 -0.3 35 +14 +14 1026.3 917.9
13 24.06 З 4
{6}
н/о н/о +15.1 +0.6 37 +14 +14 1026.2 917.7
14 24.06 З 4
{6}
н/о н/о +15.8 +0.8 36 +15 +15 1025.4 917.3
15 24.06 З 1
{6}
н/о н/о +15.0 +1.5 40 +16 +16 1025.6 917.2
16 24.06 СЗ 2
{7}
н/о н/о +14.5 +1.8 42 +14 +14 1025.8 917.2
17 24.06 ЮЗ 3
{6}
н/о н/о +13.6 +2.2 46 +13 +13 1025.9 917.0
18 24.06 СЗ 2
{7}
н/о н/о +10.6 +6.7 77 +9 +9 1027.8 917.6 +7.3 +16.8 0.1
19 24.06 З 1
{3}
н/о н/о +9.6 +6.9 83 +9 +9 1028.5 917.9 0.4
20 24.06 З 1
{2}
н/о н/о +8.9 +7.0 88 +8 +8 1029.2 918.2 1
21 24.06 штиль 0
{2}
н/о н/о +8.3 +6.6 89 +7 +7 1029.4 918.2 0.7
22 24.06 штиль 0
{3}
н/о н/о +8.0 +6.5 90 +7 +7 1029.0 917.7 0.1
23 24.06 ЮВ 3
{4}
н/о н/о +8.1 +5.4 83 +5 +5 1028.8 917.6
00 25.06 В 3
{4}
н/о н/о +7.9 +6.2 89 +5 +5 1028.5 917.2 0.2
01 25.06 В 2
{5}
н/о н/о +8.0 +5.8 86 +6 +6 1028.1 916.9 0.1
02 25.06 СВ 1
{6}
н/о н/о +7.6 +4.4 80 +7 +7 1027.9 916.6 0.2
03 25.06 С 1
{3}
н/о н/о +7.3 +5.6 89 +6 +6 1027.7 916.3 0.8
04 25.06 ЮВ 1
{2}
н/о н/о +7.4 +5.7 89 +6 +6 1027.5 916.2 2
05 25.06 В 3
{6}
н/о н/о +7.8 +5.3 84 +5 +5 1027.3 916.1 0.3
06 25.06 С 1
{6}
н/о н/о +7.6 +5.4 86 +7 +7 1026.9 915.7 +7.2 +10.6 6
07 25.06 В 4
{6}
н/о н/о +7.6 +5.6 87 +4 +4 1026.6 915.4 0.3
08 25.06 ЮВ 4
{7}
н/о н/о +7.6 +5.6 87 +4 +4 1026.5 915.3 0.4
09 25.06 В 5
{7}
н/о н/о +7.8 +5.8 87 +4 +4 1026.3 915.2 2
10 25.06 В 5
{8}
н/о н/о +8.3 +6.1 86 +5 +5 1025.8 915.0 0.3
11 25.06 В 5
{7}
н/о н/о +8.8 +6.4 85 +5 +5 1024.9 914.4

 

Местоположение метеостанции Филефель (Норвегия): широта 61.18 долгота 8.11 высота над уровнем моря 956 м.

В архиве по умолчанию представлена погода в Филефеле за последнюю неделю. Архивные данные за месяц целиком и за предыдущие месяцы, начиная с января 2011 года, Вы можете получить, выбрав интересующий диапазон дат из раскрывающегося списка и нажав кнопку "Ввод!".


*Определитесь, кто Вы:
робот инопланетянин человек

Внимание! Время в таблицах - всемирное. Для получения местного времени необходимо прибавить поправку, которая равна 1 ч.

Смотрите также архив погоды в соседних городах и на ближайших метеорологических станциях:

Погода в Лардале (Норвегия) (34 км)
Погода в Хемседале (Норвегия) (41 км)
Погода в Сонгфельсхутте (Норвегия) (44 км)
Погода в Хемседале II (Норвегия) (44 км)
Погода в Бейтостолене (Норвегия) (44 км)
Погода в Локен и Волбу (Норвегия) (51 км)
Погода в Согндал аэропорту (Норвегия) (53 км)
Погода в Юввассу (Норвегия) (57 км)
Погода в Фагернесе (Норвегия) (64 км)
Погода в Фагернес аэропорту (Норвегия) (67 км)

Пояснения к столбцам:

Ветер - указаны скорость ветра в м/с - средняя за 10 мин, порывы в срок и между сроками (в фигурных скобках) и направление, откуда дует ветер: С - северный, СВ - северо-восточный, В - восточный, ЮВ - юго-восточный, Ю - южный, ЮЗ - юго-западный, З - западный, СЗ - северо-западный.
Видимость - горизонтальная дальность видимости в метрах или километрах. При видимости от 1 до 10 км при отсутствии осадков обычно наблюдается дымка, при ухудшении видимости до 1 км и менее - туман. В сухую погоду видимость может ухудшаться дымом, пылью или мглою.
Явления - указаны атмосферные явления, наблюдавшиеся в срок или в последний час перед сроком; фигурными скобками обозначены явления, наблюдавшиеся между сроками (за 1-3 часа до срока); квадратными скобками обозначены град или гололедные отложения с указанием их диаметра в мм.
Облачность - указаны через наклонную черту общая и нижняя облачность в баллах и высота нижней границы облаков в метрах; квадратными скобками обозначены формы облаков: Ci - перистые, Cs - перисто-слоистые, Cc - перисто-кучевые, Ac - высококучевые, As - высокослоистые, Sc - слоисто-кучевые, Ns - слоисто-дождевые, Cu - кучевые, Cb - кучево-дождевые. Подробнее классификацию облаков см. в Атласе облаков (PDF).
T - Температура воздуха - температура, измеренная на высоте 2 м над землей.
Td - Температура точки росы - температура, при понижении до которой содержащийся в воздухе водяной пар достигнет насыщения.
f - Относительная влажность воздуха - влажноcть воздуха, измеренная на высоте 2 м над землей.
Te - Эффективная температура - температура, которую ощущает одетый по сезону человек в тени. Характеристика душности погоды. При расчете учитывается влияние влажности воздуха и скорости ветра на теплоощущения человека.
Tes - Эффективная температура на солнце - температура, которую ощущает человек, с поправкой на солнечный нагрев. Характеристика знойности погоды. Зависит от высоты солнца над горизонтом, облачности и скорости ветра. Ночью, в пасмурную погоду, а также при ветре 12 м/с и более поправка равна нулю.
P - Атмосферное давление - приведенное к уровню моря атмосферное давление.
Po - Атмосферное давление - измеренное на уровне метеостанции атмосферное давление.
Tmin - Минимальная температура - минимум температуры воздуха на высоте 2 м над землей.
Tmax - Максимальная температура - максимум температуры воздуха на высоте 2 м над землей.
R - Количество осадков - Количество выпавших осадков за период времени, мм. При наведении курсора мыши на число - период времени, за который выпало указанное количество осадков.
R24 - Количество осадков - Количество выпавших осадков за 24 часа, мм.
S - Снежный покров - Высота снежного покрова, см. При наведении курсора мыши на число - состояние снежного покрова и степень покрытия местности в баллах.